Time,TemperatureF,DewpointF,PressureIn,WindDirection,WindDirectionDegrees,WindSpeedMPH,WindSpeedGustMPH,Humidity,HourlyPrecipIn,Conditions,Clouds,dailyrainin,SoftwareType,DateUTC
2013-04-14 00:00:00,72.4,40.0,29.56,West,266,22.0,22.0,31,0.00,,,0.00,Wunderground v.1.15,2013-04-14 07:00:00,
2013-04-14 00:10:00,73.0,39.7,29.56,West,277,25.0,25.0,30,0.00,,,0.00,Wunderground v.1.15,2013-04-14 07:10:00,
2013-04-14 00:20:00,72.3,40.0,29.56,WNW,286,20.0,20.0,31,0.00,,,0.00,Wunderground v.1.15,2013-04-14 07:20:00,
2013-04-14 00:30:00,72.6,40.2,29.55,WNW,294,22.0,32.0,31,0.00,,,0.00,Wunderground v.1.15,2013-04-14 07:30:00,
2013-04-14 00:40:00,72.8,40.4,29.56,WNW,288,22.0,22.0,31,0.00,,,0.00,Wunderground v.1.15,2013-04-14 07:40:00,
2013-04-14 00:50:00,72.8,40.4,29.55,WSW,257,23.0,35.0,31,0.00,,,0.00,Wunderground v.1.15,2013-04-14 07:50:00,
2013-04-14 01:00:00,72.6,40.2,29.55,West,271,26.0,34.0,31,0.00,,,0.00,Wunderground v.1.15,2013-04-14 08:00:00,
2013-04-14 01:10:00,72.6,40.2,29.55,West,273,28.0,28.0,31,0.00,,,0.00,Wunderground v.1.15,2013-04-14 08:10:00,
2013-04-14 01:20:00,72.7,39.5,29.54,West,265,28.0,28.0,30,0.00,,,0.00,Wunderground v.1.15,2013-04-14 08:20:00,
2013-04-14 01:30:00,72.3,40.0,29.54,West,259,28.0,30.0,31,0.00,,,0.00,Wunderground v.1.15,2013-04-14 08:30:00,
2013-04-14 01:40:00,72.0,39.7,29.54,West,265,28.0,28.0,31,0.00,,,0.00,Wunderground v.1.15,2013-04-14 08:40:00,
2013-04-14 01:50:00,72.1,39.8,29.55,WNW,283,28.0,28.0,31,0.00,,,0.00,Wunderground v.1.15,2013-04-14 08:50:00,
2013-04-14 02:00:00,71.6,40.2,29.53,WSW,256,24.0,24.0,32,0.00,,,0.00,Wunderground v.1.15,2013-04-14 09:00:00,
2013-04-14 02:10:00,71.3,39.1,29.53,West,267,24.0,26.0,31,0.00,,,0.00,Wunderground v.1.15,2013-04-14 09:10:00,
2013-04-14 02:20:00,71.3,39.1,29.54,West,265,22.0,22.0,31,0.00,,,0.00,Wunderground v.1.15,2013-04-14 09:20:00,
2013-04-14 02:30:00,71.6,39.3,29.54,WNW,287,20.0,23.0,31,0.00,,,0.00,Wunderground v.1.15,2013-04-14 09:30:00,
2013-04-14 02:40:00,71.0,39.6,29.54,West,260,17.0,17.0,32,0.00,,,0.00,Wunderground v.1.15,2013-04-14 09:40:00,
2013-04-14 02:50:00,70.5,39.2,29.54,West,263,13.0,14.0,32,0.00,,,0.00,Wunderground v.1.15,2013-04-14 09:50:00,
2013-04-14 03:00:00,70.7,38.6,29.54,West,273,14.0,16.0,31,0.00,,,0.00,Wunderground v.1.15,2013-04-14 10:00:00,
2013-04-14 03:10:00,70.3,38.2,29.54,WSW,242,16.0,17.0,31,0.00,,,0.00,Wunderground v.1.15,2013-04-14 10:10:00,
2013-04-14 03:20:00,69.6,38.4,29.53,WSW,246,16.0,19.0,32,0.00,,,0.00,Wunderground v.1.15,2013-04-14 10:20:00,
2013-04-14 03:30:00,70.1,38.9,29.53,West,268,16.0,16.0,32,0.00,,,0.00,Wunderground v.1.15,2013-04-14 10:30:00,
2013-04-14 03:40:00,69.4,38.2,29.54,WSW,245,12.0,15.0,32,0.00,,,0.00,Wunderground v.1.15,2013-04-14 10:40:00,
2013-04-14 03:50:00,69.9,38.7,29.54,WSW,242,12.0,12.0,32,0.00,,,0.00,Wunderground v.1.15,2013-04-14 10:50:00,
2013-04-14 04:00:00,69.9,38.7,29.54,WSW,240,11.0,13.0,32,0.00,,,0.00,Wunderground v.1.15,2013-04-14 11:00:00,
2013-04-14 04:10:00,68.7,39.2,29.54,WSW,244,12.0,12.0,34,0.00,,,0.00,Wunderground v.1.15,2013-04-14 11:10:00,
2013-04-14 04:20:00,66.1,39.1,29.55,WSW,246,12.0,15.0,37,0.00,,,0.00,Wunderground v.1.15,2013-04-14 11:20:00,
2013-04-14 04:30:00,65.6,38.6,29.54,WSW,249,17.0,17.0,37,0.00,,,0.00,Wunderground v.1.15,2013-04-14 11:30:00,
2013-04-14 04:40:00,65.6,38.6,29.54,West,262,19.0,23.0,37,0.00,,,0.00,Wunderground v.1.15,2013-04-14 11:40:00,
2013-04-14 04:50:00,65.5,39.2,29.53,SW,232,19.0,20.0,38,0.00,,,0.00,Wunderground v.1.15,2013-04-14 11:50:00,
2013-04-14 05:00:00,65.4,38.4,29.54,West,263,18.0,18.0,37,0.00,,,0.00,Wunderground v.1.15,2013-04-14 12:00:00,
2013-04-14 05:10:00,65.7,38.7,29.53,SW,235,17.0,17.0,37,0.00,,,0.00,Wunderground v.1.15,2013-04-14 12:10:00,
2013-04-14 05:20:00,66.4,38.6,29.54,SW,236,16.0,17.0,36,0.00,,,0.00,Wunderground v.1.15,2013-04-14 12:20:00,
2013-04-14 05:30:00,66.4,39.3,29.54,WSW,244,16.0,18.0,37,0.00,,,0.00,Wunderground v.1.15,2013-04-14 12:30:00,
2013-04-14 05:40:00,65.2,38.9,29.54,SW,236,15.0,15.0,38,0.00,,,0.00,Wunderground v.1.15,2013-04-14 12:40:00,
2013-04-14 05:50:00,64.4,38.9,29.53,WSW,252,16.0,17.0,39,0.00,,,0.00,Wunderground v.1.15,2013-04-14 12:50:00,
2013-04-14 06:00:00,64.8,39.2,29.53,West,261,19.0,19.0,39,0.00,,,0.00,Wunderground v.1.15,2013-04-14 13:00:00,
2013-04-14 06:10:00,65.4,39.1,29.54,West,259,19.0,19.0,38,0.00,,,0.00,Wunderground v.1.15,2013-04-14 13:10:00,
2013-04-14 06:20:00,66.2,39.1,29.54,West,272,18.0,18.0,37,0.00,,,0.00,Wunderground v.1.15,2013-04-14 13:20:00,
2013-04-14 06:30:00,66.7,38.9,29.54,WSW,255,16.0,18.0,36,0.00,,,0.00,Wunderground v.1.15,2013-04-14 13:30:00,
2013-04-14 06:40:00,67.3,38.7,29.55,West,262,17.0,19.0,35,0.00,,,0.00,Wunderground v.1.15,2013-04-14 13:40:00,
2013-04-14 06:50:00,66.1,39.1,29.56,SW,232,12.0,12.0,37,0.00,,,0.00,Wunderground v.1.15,2013-04-14 13:50:00,
2013-04-14 07:00:00,66.4,39.3,29.56,South,175,9.0,10.0,37,0.00,,,0.00,Wunderground v.1.15,2013-04-14 14:00:00,
2013-04-14 07:10:00,65.3,40.3,29.56,South,184,10.0,13.0,40,0.00,,,0.00,Wunderground v.1.15,2013-04-14 14:10:00,
2013-04-14 07:20:00,65.8,40.1,29.56,WSW,240,11.0,11.0,39,0.00,,,0.00,Wunderground v.1.15,2013-04-14 14:20:00,
2013-04-14 07:30:00,67.7,39.8,29.56,SSW,207,9.0,9.0,36,0.00,,,0.00,Wunderground v.1.15,2013-04-14 14:30:00,
2013-04-14 07:40:00,68.5,39.8,29.56,WSW,256,10.0,11.0,35,0.00,,,0.00,Wunderground v.1.15,2013-04-14 14:40:00,
2013-04-14 07:50:00,68.7,39.9,29.56,SW,236,12.0,20.0,35,0.00,,,0.00,Wunderground v.1.15,2013-04-14 14:50:00,
2013-04-14 08:00:00,69.0,40.2,29.55,WSW,241,14.0,14.0,35,0.00,,,0.00,Wunderground v.1.15,2013-04-14 15:00:00,
2013-04-14 08:10:00,68.8,40.7,29.55,WSW,248,14.0,16.0,36,0.00,,,0.00,Wunderground v.1.15,2013-04-14 15:10:00,
2013-04-14 08:20:00,68.9,40.8,29.55,WSW,238,15.0,15.0,36,0.00,,,0.00,Wunderground v.1.15,2013-04-14 15:20:00,
2013-04-14 08:30:00,70.4,40.7,29.55,WSW,248,15.0,15.0,34,0.00,,,0.00,Wunderground v.1.15,2013-04-14 15:30:00,
2013-04-14 08:40:00,70.6,40.1,29.56,West,265,18.0,18.0,33,0.00,,,0.00,Wunderground v.1.15,2013-04-14 15:40:00,
2013-04-14 08:50:00,70.7,40.2,29.56,West,273,17.0,19.0,33,0.00,,,0.00,Wunderground v.1.15,2013-04-14 15:50:00,
2013-04-14 09:00:00,71.2,40.6,29.56,WSW,246,17.0,17.0,33,0.00,,,0.00,Wunderground v.1.15,2013-04-14 16:00:00,
2013-04-14 09:10:00,71.1,41.3,29.56,SW,223,17.0,24.0,34,0.00,,,0.00,Wunderground v.1.15,2013-04-14 16:10:00,
2013-04-14 09:20:00,70.2,41.3,29.56,SW,227,19.0,21.0,35,0.00,,,0.00,Wunderground v.1.15,2013-04-14 16:20:00,
2013-04-14 09:30:00,70.1,41.2,29.56,SW,236,18.0,22.0,35,0.00,,,0.00,Wunderground v.1.15,2013-04-14 16:30:00,
2013-04-14 09:40:00,70.9,41.1,29.56,SW,223,17.0,17.0,34,0.00,,,0.00,Wunderground v.1.15,2013-04-14 16:40:00,
2013-04-14 09:50:00,70.8,41.0,29.56,SW,217,17.0,20.0,34,0.00,,,0.00,Wunderground v.1.15,2013-04-14 16:50:00,
2013-04-14 10:00:00,70.9,40.3,29.56,SSW,194,19.0,19.0,33,0.00,,,0.00,Wunderground v.1.15,2013-04-14 17:00:00,
2013-04-14 10:10:00,71.3,41.5,29.56,SW,219,18.0,22.0,34,0.00,,,0.00,Wunderground v.1.15,2013-04-14 17:10:00,
2013-04-14 10:20:00,72.1,40.6,29.56,SW,221,19.0,19.0,32,0.00,,,0.00,Wunderground v.1.15,2013-04-14 17:20:00,
2013-04-14 10:30:00,72.4,40.9,29.56,SW,234,19.0,19.0,32,0.00,,,0.00,Wunderground v.1.15,2013-04-14 17:30:00,
2013-04-14 10:40:00,72.9,41.3,29.56,WSW,242,19.0,19.0,32,0.00,,,0.00,Wunderground v.1.15,2013-04-14 17:40:00,
2013-04-14 10:50:00,73.9,41.3,29.55,SW,225,18.0,25.0,31,0.00,,,0.00,Wunderground v.1.15,2013-04-14 17:50:00,
2013-04-14 11:00:00,75.2,41.6,29.55,SW,219,20.0,20.0,30,0.00,,,0.00,Wunderground v.1.15,2013-04-14 18:00:00,
2013-04-14 11:10:00,75.5,40.1,29.54,WSW,242,17.0,19.0,28,0.00,,,0.00,Wunderground v.1.15,2013-04-14 18:10:00,
2013-04-14 11:20:00,76.6,41.0,29.53,WSW,248,14.0,16.0,28,0.00,,,0.00,Wunderground v.1.15,2013-04-14 18:20:00,
2013-04-14 11:30:00,76.7,40.2,29.54,WSW,251,15.0,15.0,27,0.00,,,0.00,Wunderground v.1.15,2013-04-14 18:30:00,
2013-04-14 11:40:00,76.3,41.7,29.52,West,263,19.0,24.0,29,0.00,,,0.00,Wunderground v.1.15,2013-04-14 18:40:00,
2013-04-14 11:50:00,78.4,41.6,29.51,SW,236,18.0,18.0,27,0.00,,,0.00,Wunderground v.1.15,2013-04-14 18:50:00,
2013-04-14 12:00:00,79.2,40.3,29.51,West,269,18.0,18.0,25,0.00,,,0.00,Wunderground v.1.15,2013-04-14 19:00:00,
2013-04-14 12:10:00,77.8,41.1,29.49,WSW,247,26.0,29.0,27,0.00,,,0.00,Wunderground v.1.15,2013-04-14 19:10:00,
2013-04-14 12:20:00,77.3,41.6,29.49,WSW,254,30.0,30.0,28,0.00,,,0.00,Wunderground v.1.15,2013-04-14 19:20:00,
2013-04-14 12:30:00,77.5,40.9,29.49,WSW,256,29.0,31.0,27,0.00,,,0.00,Wunderground v.1.15,2013-04-14 19:30:00,
2013-04-14 12:40:00,77.2,42.5,29.49,SW,236,28.0,33.0,29,0.00,,,0.00,Wunderground v.1.15,2013-04-14 19:40:00,
2013-04-14 12:50:00,77.2,42.5,29.48,WSW,245,28.0,28.0,29,0.00,,,0.00,Wunderground v.1.15,2013-04-14 19:50:00,
2013-04-14 13:00:00,77.7,42.0,29.48,SW,236,25.0,31.0,28,0.00,,,0.00,Wunderground v.1.15,2013-04-14 20:00:00,
2013-04-14 13:10:00,77.7,42.9,29.48,SW,215,26.0,26.0,29,0.00,,,0.00,Wunderground v.1.15,2013-04-14 20:10:00,
2013-04-14 13:20:00,77.7,42.9,29.48,WSW,242,27.0,29.0,29,0.00,,,0.00,Wunderground v.1.15,2013-04-14 20:20:00,
2013-04-14 13:30:00,76.7,43.8,29.48,SW,236,30.0,30.0,31,0.00,,,0.00,Wunderground v.1.15,2013-04-14 20:30:00,
2013-04-14 13:40:00,77.2,43.4,29.48,WSW,249,28.0,31.0,30,0.00,,,0.00,Wunderground v.1.15,2013-04-14 20:40:00,
2013-04-14 13:50:00,77.8,43.9,29.47,SW,232,27.0,28.0,30,0.00,,,0.00,Wunderground v.1.15,2013-04-14 20:50:00,
2013-04-14 14:00:00,77.1,43.3,29.48,WSW,244,28.0,28.0,30,0.00,,,0.00,Wunderground v.1.15,2013-04-14 21:00:00,
2013-04-14 14:10:00,77.7,43.8,29.47,WSW,244,26.0,26.0,30,0.00,,,0.00,Wunderground v.1.15,2013-04-14 21:10:00,
2013-04-14 14:20:00,79.9,38.8,29.46,West,259,25.0,30.0,23,0.00,,,0.00,Wunderground v.1.15,2013-04-14 21:20:00,
2013-04-14 14:30:00,80.6,42.5,29.47,West,273,28.0,28.0,26,0.00,,,0.00,Wunderground v.1.15,2013-04-14 21:30:00,
2013-04-14 14:40:00,80.2,36.7,29.47,WNW,285,25.0,25.0,21,0.00,,,0.00,Wunderground v.1.15,2013-04-14 21:40:00,
2013-04-14 14:50:00,81.1,34.9,29.47,West,275,24.0,26.0,19,0.00,,,0.00,Wunderground v.1.15,2013-04-14 21:50:00,
2013-04-14 15:00:00,82.0,35.7,29.46,West,271,22.0,22.0,19,0.00,,,0.00,Wunderground v.1.15,2013-04-14 22:00:00,
2013-04-14 15:10:00,81.1,34.9,29.45,West,269,25.0,25.0,19,0.00,,,0.00,Wunderground v.1.15,2013-04-14 22:10:00,
2013-04-14 15:20:00,80.6,35.8,29.44,West,269,31.0,34.0,20,0.00,,,0.00,Wunderground v.1.15,2013-04-14 22:20:00,
2013-04-14 15:30:00,80.8,36.0,29.44,WNW,290,29.0,30.0,20,0.00,,,0.00,Wunderground v.1.15,2013-04-14 22:30:00,
2013-04-14 15:40:00,80.2,36.7,29.44,West,278,29.0,29.0,21,0.00,,,0.00,Wunderground v.1.15,2013-04-14 22:40:00,
2013-04-14 15:50:00,80.9,37.3,29.42,West,265,28.0,37.0,21,0.00,,,0.00,Wunderground v.1.15,2013-04-14 22:50:00,
2013-04-14 16:00:00,80.3,36.8,29.42,West,268,32.0,34.0,21,0.00,,,0.00,Wunderground v.1.15,2013-04-14 23:00:00,
2013-04-14 16:10:00,79.4,36.0,29.42,West,276,35.0,36.0,21,0.00,,,0.00,Wunderground v.1.15,2013-04-14 23:10:00,
2013-04-14 16:20:00,79.4,36.0,29.43,West,261,34.0,37.0,21,0.00,,,0.00,Wunderground v.1.15,2013-04-14 23:20:00,
2013-04-14 16:30:00,78.6,39.8,29.44,West,269,34.0,34.0,25,0.00,,,0.00,Wunderground v.1.15,2013-04-14 23:30:00,
2013-04-14 16:40:00,76.4,39.9,29.43,WSW,245,32.0,32.0,27,0.00,,,0.00,Wunderground v.1.15,2013-04-14 23:40:00,
2013-04-14 16:50:00,75.5,39.2,29.44,SW,223,33.0,35.0,27,0.00,,,0.00,Wunderground v.1.15,2013-04-14 23:50:00,
2013-04-14 17:00:00,74.9,39.6,29.45,SW,219,33.0,33.0,28,0.00,,,0.00,Wunderground v.1.15,2013-04-15 00:00:00,
2013-04-14 17:10:00,74.5,39.2,29.45,SW,227,32.0,32.0,28,0.00,,,0.00,Wunderground v.1.15,2013-04-15 00:10:00,
2013-04-14 17:20:00,74.3,39.1,29.46,SW,225,30.0,30.0,28,0.00,,,0.00,Wunderground v.1.15,2013-04-15 00:20:00,
2013-04-14 17:30:00,73.9,38.7,29.45,SW,227,30.0,30.0,28,0.00,,,0.00,Wunderground v.1.15,2013-04-15 00:30:00,
2013-04-14 17:40:00,73.8,38.6,29.46,SW,215,31.0,36.0,28,0.00,,,0.00,Wunderground v.1.15,2013-04-15 00:40:00,
2013-04-14 17:50:00,73.6,38.5,29.48,SW,235,31.0,31.0,28,0.00,,,0.00,Wunderground v.1.15,2013-04-15 00:50:00,
2013-04-14 18:00:00,75.5,35.1,29.49,West,263,22.0,22.0,23,0.00,,,0.00,Wunderground v.1.15,2013-04-15 01:00:00,
2013-04-14 18:10:00,75.2,34.8,29.49,West,271,24.0,24.0,23,0.00,,,0.00,Wunderground v.1.15,2013-04-15 01:10:00,
2013-04-14 18:20:00,74.8,34.5,29.49,West,261,23.0,23.0,23,0.00,,,0.00,Wunderground v.1.15,2013-04-15 01:20:00,
2013-04-14 18:30:00,74.0,34.9,29.49,West,264,24.0,24.0,24,0.00,,,0.00,Wunderground v.1.15,2013-04-15 01:30:00,
2013-04-14 18:40:00,73.2,37.2,29.48,SW,228,23.0,23.0,27,0.00,,,0.00,Wunderground v.1.15,2013-04-15 01:40:00,
2013-04-14 18:50:00,70.9,37.0,29.48,SSW,205,27.0,35.0,29,0.00,,,0.00,Wunderground v.1.15,2013-04-15 01:50:00,
2013-04-14 19:00:00,70.2,36.4,29.49,SSW,205,29.0,29.0,29,0.00,,,0.00,Wunderground v.1.15,2013-04-15 02:00:00,
2013-04-14 19:10:00,69.7,36.9,29.49,SW,217,29.0,29.0,30,0.00,,,0.00,Wunderground v.1.15,2013-04-15 02:10:00,
2013-04-14 19:20:00,69.0,37.1,29.49,SW,215,27.0,31.0,31,0.00,,,0.00,Wunderground v.1.15,2013-04-15 02:20:00,
2013-04-14 19:30:00,68.5,36.7,29.49,SW,214,29.0,29.0,31,0.00,,,0.00,Wunderground v.1.15,2013-04-15 02:30:00,
2013-04-14 19:40:00,68.1,37.1,29.49,SW,219,30.0,30.0,32,0.00,,,0.00,Wunderground v.1.15,2013-04-15 02:40:00,
2013-04-14 19:50:00,67.7,36.8,29.48,WSW,242,29.0,29.0,32,0.00,,,0.00,Wunderground v.1.15,2013-04-15 02:50:00,
2013-04-14 20:00:00,67.5,37.4,29.50,SW,235,30.0,30.0,33,0.00,,,0.00,Wunderground v.1.15,2013-04-15 03:00:00,
2013-04-14 20:10:00,67.1,37.8,29.50,SW,226,29.0,29.0,34,0.00,,,0.00,Wunderground v.1.15,2013-04-15 03:10:00,
2013-04-14 20:20:00,67.1,37.8,29.50,SW,233,29.0,30.0,34,0.00,,,0.00,Wunderground v.1.15,2013-04-15 03:20:00,
2013-04-14 20:30:00,67.1,37.8,29.50,WSW,246,30.0,31.0,34,0.00,,,0.00,Wunderground v.1.15,2013-04-15 03:30:00,
2013-04-14 20:40:00,67.2,37.1,29.51,WSW,243,29.0,29.0,33,0.00,,,0.00,Wunderground v.1.15,2013-04-15 03:40:00,
2013-04-14 20:50:00,66.9,36.8,29.50,WSW,244,29.0,29.0,33,0.00,,,0.00,Wunderground v.1.15,2013-04-15 03:50:00,
2013-04-14 21:00:00,66.8,36.0,29.52,WSW,257,27.0,27.0,32,0.00,,,0.00,Wunderground v.1.15,2013-04-15 04:00:00,
2013-04-14 21:10:00,66.6,35.8,29.51,WSW,253,26.0,26.0,32,0.00,,,0.00,Wunderground v.1.15,2013-04-15 04:10:00,
2013-04-14 21:20:00,66.4,36.4,29.51,WSW,255,26.0,26.0,33,0.00,,,0.00,Wunderground v.1.15,2013-04-15 04:20:00,
2013-04-14 21:30:00,66.4,35.6,29.51,WSW,252,27.0,28.0,32,0.00,,,0.00,Wunderground v.1.15,2013-04-15 04:30:00,
2013-04-14 21:40:00,66.4,35.6,29.51,WSW,237,25.0,27.0,32,0.00,,,0.00,Wunderground v.1.15,2013-04-15 04:40:00,
2013-04-14 21:50:00,66.4,34.8,29.51,SW,230,27.0,28.0,31,0.00,,,0.00,Wunderground v.1.15,2013-04-15 04:50:00,
2013-04-14 22:00:00,66.3,34.7,29.53,SSW,213,24.0,26.0,31,0.00,,,0.00,Wunderground v.1.15,2013-04-15 05:00:00,
2013-04-14 22:10:00,66.6,35.0,29.56,SW,224,22.0,24.0,31,0.00,,,0.00,Wunderground v.1.15,2013-04-15 05:10:00,
2013-04-14 22:20:00,66.3,34.7,29.55,SW,223,20.0,20.0,31,0.00,,,0.00,Wunderground v.1.15,2013-04-15 05:20:00,
2013-04-14 22:30:00,66.1,34.6,29.52,SW,225,21.0,24.0,31,0.00,,,0.00,Wunderground v.1.15,2013-04-15 05:30:00,
2013-04-14 22:40:00,65.8,34.3,29.52,WSW,252,23.0,23.0,31,0.00,,,0.00,Wunderground v.1.15,2013-04-15 05:40:00,
2013-04-14 22:50:00,66.1,33.7,29.52,WSW,248,23.0,23.0,30,0.00,,,0.00,Wunderground v.1.15,2013-04-15 05:50:00,
2013-04-14 23:00:00,65.7,33.4,29.53,WSW,247,17.0,17.0,30,0.00,,,0.00,Wunderground v.1.15,2013-04-15 06:00:00,
2013-04-14 23:10:00,65.4,33.1,29.53,WSW,254,17.0,18.0,30,0.00,,,0.00,Wunderground v.1.15,2013-04-15 06:10:00,
2013-04-14 23:20:00,66.2,32.1,29.53,West,261,18.0,18.0,28,0.00,,,0.00,Wunderground v.1.15,2013-04-15 06:20:00,
2013-04-14 23:30:00,66.5,31.5,29.53,WSW,254,16.0,16.0,27,0.00,,,0.00,Wunderground v.1.15,2013-04-15 06:30:00,
2013-04-14 23:40:00,67.0,31.9,29.54,West,264,12.0,12.0,27,0.00,,,0.00,Wunderground v.1.15,2013-04-15 06:40:00,
2013-04-14 23:50:00,64.4,32.3,29.54,West,264,8.0,10.0,30,0.00,,,0.00,Wunderground v.1.15,2013-04-15 06:50:00,